Track COSMOS 2508 now! 10-day predictions COSMOS 2508 is classified as:
1 40922U 15050C 22136.80135281 .00000056 00000-0 33484-3 0 9996 2 40922 82.4851 287.8744 0016412 53.5880 306.6710 12.42896911301482